QPF
0.04 0.04 0.03 0.02 0.01 0.01 0.00 0.01 0.01 0.01 0.00 0.01 0.01 0.01 0.01 0.01 0.01 0.01 0.00 0.01 0.01 0.01 0.01 0.01 0.01 0.02 0.01 0.01 0.01 0.03 0.05 0.05 0.04 0.03 0.03 0.02 0.02 0.02
0.05 0.04 0.04 0.02 0.01 0.01 0.01 0.01 0.01 0.01 0.01 0.00 0.00 0.01 0.01 0.01 0.01 0.01 0.01 0.01 0.01 0.01 0.01 0.01 0.02 0.02 0.02 0.02 0.02 0.03 0.04 0.04 0.02 0.02 0.02 0.02 0.03 0.03
0.06 0.04 0.04 0.03 0.01 0.01 0.01 0.01 0.01 0.01 0.01 0.00 0.00 0.00 0.01 0.01 0.01 0.01 0.01 0.01 0.01 0.01 0.01 0.01 0.02 0.02 0.02 0.01 0.02 0.03 0.03 0.02 0.02 0.02 0.02 0.03 0.03 0.03
0.05 0.04 0.03 0.02 0.01 0.01 0.01 0.00 0.00 0.01 0.01 0.01 0.01 0.01 0.01 0.01 0.02 0.02 0.01 0.01 0.01 0.01 0.01 0.01 0.01 0.02 0.01 0.01 0.01 0.02 0.02 0.02 0.02 0.02 0.02 0.02 0.02 0.02
0.05 0.05 0.04 0.03 0.02 0.01 0.01 0.01 0.01 0.01 0.01 0.01 0.02 0.02 0.01 0.01 0.02 0.02 0.02 0.02 0.01 0.02 0.02 0.02 0.02 0.02 0.02 0.01 0.01 0.02 0.02 0.02 0.02 0.02 0.02 0.01 0.01 0.01
0.04 0.04 0.04 0.03 0.02 0.02 0.01 0.01 0.01 0.01 0.01 0.01 0.01 0.02 0.02 0.02 0.02 0.02 0.02 0.02 0.01 0.01 0.02 0.02 0.02 0.02 0.02 0.02 0.02 0.02 0.03 0.03 0.03 0.02 0.02 0.02 0.02 0.02
0.03 0.04 0.04 0.04 0.03 0.03 0.02 0.02 0.01 0.01 0.02 0.02 0.02 0.02 0.02 0.02 0.02 0.02 0.02 0.02 0.02 0.02 0.02 0.01 0.01 0.01 0.01 0.02 0.02 0.02 0.03 0.03 0.03 0.03 0.02 0.02 0.02 0.02
0.02 0.02 0.03 0.03 0.03 0.03 0.02 0.02 0.02 0.01 0.01 0.01 0.02 0.02 0.01 0.01 0.01 0.01 0.02 0.02 0.02 0.01 0.01 0.01 0.01 0.01 0.01 0.01 0.01 0.01 0.01 0.02 0.02 0.02 0.02 0.02 0.02 0.01
0.02 0.02 0.02 0.02 0.02 0.02 0.02 0.02 0.01 0.02 0.02 0.02 0.02 0.02 0.01 0.01 0.01 0.01 0.02 0.02 0.02 0.01 0.01 0.01 0.01 0.01 0.01 0.01 0.01 0.01 0.01 0.01 0.02 0.02 0.02 0.01 0.01 0.01
0.02 0.02 0.02 0.01 0.01 0.01 0.02 0.02 0.01 0.01 0.02 0.02 0.02 0.02 0.02 0.02 0.02 0.02 0.03 0.04 0.03 0.02 0.01 0.01 0.01 0.01 0.01 0.01 0.01 0.01 0.01 0.01 0.01 0.01 0.02 0.02 0.01 0.02
0.03 0.03 0.02 0.02 0.01 0.01 0.01 0.01 0.01 0.01 0.02 0.02 0.03 0.03 0.03 0.03 0.03 0.03 0.03 0.03 0.03 0.01 0.01 0.00 0.00 0.00 0.01 0.01 0.01 0.01 0.01 0.01 0.01 0.01 0.01 0.01 0.01 0.02
0.04 0.04 0.04 0.03 0.02 0.01 0.01 0.01 0.01 0.01 0.01 0.01 0.02 0.02 0.02 0.02 0.03 0.02 0.02 0.03 0.02 0.02 0.01 0.01 0.01 0.01 0.01 0.01 0.01 0.01 0.01 0.01 0.01 0.01 0.01 0.01 0.01 0.01
0.04 0.04 0.05 0.05 0.03 0.03 0.02 0.01 0.01 0.01 0.01 0.01 0.01 0.01 0.02 0.01 0.01 0.01 0.01 0.01 0.01 0.01 0.01 0.01 0.01 0.01 0.01 0.01 0.01 0.01 0.01 0.01 0.01 0.01 0.01 0.01 0.01 0.01
0.04 0.03 0.04 0.05 0.05 0.05 0.04 0.03 0.03 0.02 0.02 0.02 0.02 0.01 0.01 0.01 0.01 0.01 0.01 0.01 0.01 0.01 0.01 0.01 0.01 0.01 0.02 0.02 0.02 0.01 0.01 0.01 0.01 0.01 0.01 0.02 0.02 0.02
0.03 0.04 0.05 0.06 0.07 0.07 0.07 0.05 0.04 0.03 0.02 0.02 0.01 0.01 0.01 0.01 0.01 0.00 0.01 0.00 0.01 0.01 0.01 0.01 0.01 0.01 0.02 0.02 0.02 0.01 0.01 0.01 0.01 0.01 0.01 0.01 0.02 0.02
0.04 0.04 0.06 0.07 0.09 0.10 0.09 0.08 0.05 0.04 0.03 0.02 0.02 0.02 0.01 0.01 0.01 0.00 0.00 0.01 0.01 0.01 0.01 0.01 0.01 0.01 0.01 0.01 0.01 0.01 0.01 0.01 0.01 0.01 0.01 0.01 0.01 0.01
0.04 0.04 0.05 0.07 0.08 0.10 0.09 0.08 0.07 0.05 0.04 0.03 0.02 0.02 0.02 0.01 0.01 0.01 0.01 0.01 0.01 0.01 0.01 0.01 0.01 0.01 0.01 0.01 0.01 0.01 0.01 0.01 0.01 0.01 0.01 0.01 0.01 0.01
0.05 0.05 0.05 0.06 0.06 0.07 0.07 0.06 0.06 0.05 0.04 0.04 0.03 0.03 0.02 0.02 0.02 0.01 0.01 0.01 0.01 0.01 0.01 0.01 0.01 0.01 0.01 0.01 0.01 0.01 0.01 0.01 0.01 0.01 0.01 0.02 0.02 0.01
0.03 0.04 0.04 0.05 0.05 0.05 0.05 0.05 0.04 0.04 0.04 0.04 0.04 0.04 0.03 0.03 0.03 0.03 0.03 0.02 0.02 0.01 0.01 0.01 0.01 0.01 0.02 0.01 0.00 0.00 0.00 0.01 0.01 0.01 0.02 0.02 0.02 0.02
0.03 0.03 0.03 0.03 0.04 0.04 0.04 0.04 0.03 0.03 0.03 0.03 0.04 0.04 0.04 0.04 0.03 0.03 0.02 0.02 0.02 0.02 0.01 0.01 0.01 0.01 0.02 0.02 0.01 0.01 0.01 0.01 0.01 0.01 0.01 0.01 0.01 0.02
0.03 0.03 0.03 0.03 0.03 0.03 0.03 0.03 0.03 0.03 0.02 0.03 0.03 0.04 0.04 0.04 0.03 0.03 0.02 0.02 0.02 0.02 0.02 0.01 0.01 0.01 0.01 0.02 0.02 0.01 0.00 0.01 0.01 0.02 0.02 0.02 0.02 0.02
0.03 0.03 0.03 0.03 0.03 0.03 0.02 0.03 0.03 0.02 0.02 0.02 0.02 0.02 0.02 0.03 0.03 0.03 0.03 0.03 0.02 0.02 0.02 0.01 0.01 0.01 0.01 0.02 0.02 0.01 0.00 0.00 0.01 0.01 0.02 0.02 0.03 0.03
0.03 0.03 0.03 0.03 0.02 0.02 0.02 0.02 0.02 0.02 0.02 0.01 0.01 0.01 0.01 0.02 0.02 0.02 0.02 0.02 0.02 0.02 0.02 0.02 0.01 0.01 0.02 0.02 0.02 0.01 0.01 0.01 0.01 0.02 0.01 0.02 0.02 0.02
MSLP
1025.71 1025.39 1025.07 1024.72 1024.31 1023.81 1023.23 1022.58 1021.89 1021.20 1020.56 1020.01 1019.57 1019.25 1019.04 1018.90 1018.80 1018.72 1018.60 1018.46 1018.27 1018.06 1017.84 1017.64 1017.47 1017.34 1017.24 1017.17 1017.12 1017.06 1017.00 1016.93 1016.85 1016.78 1016.73 1016.72 1016.74 1016.82
1025.83 1025.56 1025.26 1024.93 1024.53 1024.04 1023.45 1022.79 1022.08 1021.36 1020.68 1020.07 1019.57 1019.19 1018.90 1018.69 1018.52 1018.37 1018.21 1018.02 1017.80 1017.57 1017.34 1017.12 1016.94 1016.79 1016.68 1016.59 1016.52 1016.46 1016.39 1016.32 1016.25 1016.19 1016.14 1016.12 1016.13 1016.17
1025.79 1025.55 1025.30 1025.00 1024.62 1024.16 1023.59 1022.95 1022.26 1021.55 1020.86 1020.24 1019.71 1019.27 1018.92 1018.63 1018.39 1018.16 1017.92 1017.67 1017.40 1017.13 1016.86 1016.61 1016.39 1016.21 1016.06 1015.95 1015.86 1015.79 1015.72 1015.67 1015.62 1015.58 1015.56 1015.56 1015.57 1015.59
1025.60 1025.39 1025.16 1024.89 1024.56 1024.13 1023.61 1023.02 1022.37 1021.70 1021.04 1020.44 1019.90 1019.43 1019.03 1018.69 1018.37 1018.07 1017.76 1017.43 1017.09 1016.75 1016.43 1016.12 1015.85 1015.62 1015.43 1015.28 1015.16 1015.08 1015.02 1014.98 1014.96 1014.96 1014.98 1015.00 1015.03 1015.05
1025.25 1025.06 1024.85 1024.60 1024.29 1023.91 1023.44 1022.91 1022.33 1021.72 1021.13 1020.56 1020.05 1019.58 1019.17 1018.78 1018.41 1018.04 1017.66 1017.27 1016.86 1016.45 1016.05 1015.68 1015.34 1015.05 1014.80 1014.61 1014.46 1014.36 1014.29 1014.27 1014.28 1014.31 1014.37 1014.42 1014.47 1014.50
1024.76 1024.56 1024.35 1024.11 1023.82 1023.47 1023.06 1022.59 1022.08 1021.55 1021.03 1020.52 1020.05 1019.62 1019.21 1018.82 1018.42 1018.01 1017.58 1017.13 1016.65 1016.18 1015.71 1015.27 1014.87 1014.51 1014.20 1013.95 1013.76 1013.63 1013.55 1013.53 1013.55 1013.61 1013.69 1013.77 1013.84 1013.86
1024.11 1023.89 1023.67 1023.43 1023.14 1022.82 1022.44 1022.02 1021.58 1021.13 1020.68 1020.25 1019.84 1019.46 1019.09 1018.71 1018.31 1017.89 1017.43 1016.94 1016.43 1015.91 1015.38 1014.88 1014.41 1013.99 1013.62 1013.32 1013.08 1012.91 1012.81 1012.77 1012.79 1012.85 1012.93 1013.02 1013.08 1013.10
1023.33 1023.08 1022.83 1022.57 1022.28 1021.96 1021.61 1021.24 1020.84 1020.45 1020.08 1019.72 1019.38 1019.06 1018.73 1018.39 1018.02 1017.62 1017.16 1016.67 1016.14 1015.59 1015.03 1014.49 1013.97 1013.49 1013.07 1012.71 1012.42 1012.20 1012.06 1011.99 1011.98 1012.02 1012.08 1012.14 1012.19 1012.18
1022.41 1022.14 1021.87 1021.59 1021.29 1020.96 1020.62 1020.27 1019.92 1019.57 1019.25 1018.95 1018.68 1018.41 1018.14 1017.86 1017.53 1017.17 1016.74 1016.27 1015.75 1015.20 1014.64 1014.07 1013.52 1013.01 1012.54 1012.13 1011.78 1011.52 1011.32 1011.20 1011.14 1011.13 1011.16 1011.18 1011.19 1011.16
1021.39 1021.10 1020.82 1020.52 1020.21 1019.88 1019.54 1019.19 1018.86 1018.54 1018.26 1018.00 1017.78 1017.57 1017.36 1017.13 1016.86 1016.55 1016.18 1015.76 1015.27 1014.75 1014.20 1013.64 1013.08 1012.54 1012.04 1011.58 1011.19 1010.87 1010.61 1010.43 1010.31 1010.24 1010.20 1010.17 1010.14 1010.08
1020.29 1020.00 1019.71 1019.40 1019.09 1018.75 1018.41 1018.07 1017.74 1017.44 1017.17 1016.94 1016.76 1016.59 1016.43 1016.26 1016.06 1015.82 1015.51 1015.15 1014.72 1014.25 1013.73 1013.19 1012.64 1012.10 1011.57 1011.08 1010.65 1010.27 1009.95 1009.70 1009.51 1009.37 1009.27 1009.19 1009.12 1009.04
1019.14 1018.86 1018.57 1018.26 1017.95 1017.61 1017.26 1016.92 1016.59 1016.30 1016.04 1015.83 1015.67 1015.54 1015.43 1015.32 1015.18 1015.01 1014.78 1014.49 1014.14 1013.72 1013.26 1012.75 1012.22 1011.68 1011.15 1010.64 1010.16 1009.72 1009.34 1009.02 1008.76 1008.56 1008.40 1008.28 1008.19 1008.11
1017.95 1017.67 1017.39 1017.09 1016.77 1016.44 1016.10 1015.75 1015.43 1015.14 1014.89 1014.70 1014.56 1014.46 1014.40 1014.34 1014.27 1014.17 1014.02 1013.81 1013.53 1013.19 1012.78 1012.32 1011.82 1011.30 1010.76 1010.22 1009.70 1009.22 1008.78 1008.40 1008.08 1007.82 1007.62 1007.47 1007.37 1007.31
1016.70 1016.43 1016.15 1015.86 1015.55 1015.22 1014.88 1014.55 1014.23 1013.95 1013.71 1013.54 1013.42 1013.36 1013.34 1013.34 1013.33 1013.31 1013.24 1013.11 1012.91 1012.64 1012.29 1011.88 1011.41 1010.90 1010.36 1009.81 1009.26 1008.74 1008.25 1007.81 1007.44 1007.13 1006.90 1006.74 1006.65 1006.63
1015.41 1015.12 1014.84 1014.55 1014.25 1013.92 1013.60 1013.27 1012.96 1012.70 1012.48 1012.33 1012.25 1012.23 1012.25 1012.30 1012.36 1012.40 1012.41 1012.35 1012.23 1012.03 1011.74 1011.38 1010.95 1010.46 1009.92 1009.36 1008.79 1008.23 1007.70 1007.22 1006.80 1006.47 1006.21 1006.06 1005.99 1006.01
1014.06 1013.76 1013.46 1013.16 1012.85 1012.54 1012.21 1011.90 1011.62 1011.37 1011.19 1011.07 1011.02 1011.04 1011.11 1011.21 1011.32 1011.43 1011.49 1011.51 1011.45 1011.31 1011.08 1010.77 1010.37 1009.91 1009.38 1008.82 1008.23 1007.65 1007.09 1006.58 1006.14 1005.78 1005.52 1005.37 1005.34 1005.41
1012.69 1012.35 1012.03 1011.71 1011.39 1011.07 1010.76 1010.46 1010.20 1009.98 1009.82 1009.74 1009.72 1009.77 1009.88 1010.03 1010.19 1010.34 1010.45 1010.52 1010.51 1010.43 1010.25 1009.98 1009.63 1009.19 1008.69 1008.14 1007.56 1006.97 1006.40 1005.88 1005.43 1005.06 1004.80 1004.67 1004.66 1004.77
1011.33 1010.96 1010.60 1010.26 1009.92 1009.59 1009.28 1008.99 1008.74 1008.55 1008.41 1008.35 1008.36 1008.44 1008.57 1008.74 1008.93 1009.11 1009.26 1009.36 1009.39 1009.34 1009.21 1008.99 1008.68 1008.29 1007.82 1007.30 1006.74 1006.18 1005.62 1005.11 1004.66 1004.31 1004.06 1003.94 1003.95 1004.09
1010.05 1009.63 1009.24 1008.86 1008.50 1008.15 1007.83 1007.54 1007.29 1007.11 1006.99 1006.94 1006.97 1007.05 1007.19 1007.37 1007.56 1007.74 1007.90 1008.02 1008.08 1008.06 1007.97 1007.80 1007.54 1007.20 1006.79 1006.32 1005.81 1005.29 1004.78 1004.30 1003.88 1003.54 1003.32 1003.21 1003.24 1003.40
1008.88 1008.42 1007.99 1007.57 1007.17 1006.79 1006.44 1006.14 1005.89 1005.70 1005.58 1005.53 1005.55 1005.63 1005.76 1005.92 1006.10 1006.27 1006.42 1006.54 1006.61 1006.62 1006.57 1006.44 1006.24 1005.97 1005.63 1005.24 1004.80 1004.35 1003.90 1003.48 1003.10 1002.81 1002.61 1002.52 1002.57 1002.74
1007.84 1007.35 1006.86 1006.39 1005.94 1005.52 1005.13 1004.79 1004.51 1004.30 1004.17 1004.10 1004.10 1004.17 1004.28 1004.42 1004.57 1004.73 1004.87 1004.99 1005.06 1005.10 1005.08 1005.00 1004.87 1004.67 1004.41 1004.11 1003.76 1003.40 1003.03 1002.67 1002.36 1002.12 1001.96 1001.90 1001.97 1002.15
1006.92 1006.37 1005.82 1005.28 1004.76 1004.27 1003.82 1003.43 1003.12 1002.87 1002.71 1002.62 1002.61 1002.65 1002.74 1002.87 1003.01 1003.15 1003.29 1003.41 1003.51 1003.56 1003.59 1003.56 1003.49 1003.37 1003.21 1002.99 1002.74 1002.46 1002.18 1001.90 1001.66 1001.47 1001.36 1001.34 1001.43 1001.62
1006.05 1005.42 1004.78 1004.14 1003.52 1002.94 1002.42 1001.96 1001.59 1001.31 1001.12 1001.02 1001.00 1001.04 1001.14 1001.27 1001.42 1001.58 1001.74 1001.88 1002.01 1002.11 1002.18 1002.21 1002.20 1002.16 1002.06 1001.93 1001.76 1001.56 1001.35 1001.14 1000.96 1000.83 1000.76 1000.78 1000.90 1001.13
Thickness
5581 5582 5582 5583 5583 5583 5583 5581 5579 5575 5574 5574 5573 5574 5573 5571 5570 5568 5567 5566 5564 5562 5560 5558 5557 5554 5552 5550 5549 5546 5544 5542 5540 5537 5535 5533 5531 5529
5572 5573 5574 5574 5574 5574 5574 5573 5573 5571 5568 5567 5566 5565 5564 5563 5561 5560 5558 5557 5555 5553 5551 5549 5547 5545 5543 5542 5540 5537 5535 5533 5530 5528 5526 5523 5521 5520
5563 5564 5565 5565 5565 5565 5565 5564 5563 5562 5559 5558 5556 5556 5554 5553 5551 5550 5548 5547 5545 5543 5542 5540 5538 5536 5534 5532 5530 5528 5526 5523 5521 5518 5516 5514 5512 5510
5554 5555 5556 5556 5556 5556 5556 5556 5555 5554 5552 5549 5546 5545 5544 5543 5542 5540 5538 5537 5535 5534 5532 5530 5529 5527 5525 5523 5520 5518 5516 5513 5511 5508 5506 5505 5503 5501
5545 5546 5547 5547 5547 5546 5546 5546 5546 5545 5543 5541 5539 5536 5534 5533 5531 5529 5527 5526 5525 5523 5522 5521 5519 5517 5515 5513 5510 5508 5505 5503 5501 5499 5497 5495 5494 5492
5536 5537 5538 5538 5538 5537 5537 5536 5535 5533 5532 5531 5529 5526 5524 5522 5520 5518 5517 5515 5514 5513 5512 5510 5509 5506 5504 5502 5500 5498 5495 5493 5491 5489 5487 5486 5484 5482
5525 5526 5528 5529 5529 5528 5528 5527 5525 5523 5521 5520 5518 5516 5514 5511 5511 5509 5507 5505 5503 5502 5501 5500 5498 5496 5493 5491 5489 5487 5485 5483 5481 5479 5477 5475 5474 5472
5515 5516 5517 5517 5517 5518 5518 5517 5516 5514 5512 5511 5509 5508 5507 5504 5501 5499 5496 5494 5493 5492 5490 5489 5487 5485 5483 5481 5479 5477 5476 5473 5471 5469 5467 5465 5463 5462
5504 5505 5506 5506 5506 5506 5506 5505 5504 5504 5504 5503 5501 5500 5498 5496 5492 5489 5487 5484 5484 5481 5478 5477 5475 5473 5472 5471 5469 5467 5465 5463 5461 5459 5457 5455 5453 5451
5493 5495 5495 5495 5494 5495 5494 5493 5493 5492 5492 5492 5492 5492 5489 5487 5484 5482 5478 5473 5470 5468 5467 5464 5463 5461 5461 5460 5459 5457 5454 5452 5450 5448 5446 5444 5442 5439
5482 5483 5484 5484 5484 5484 5483 5482 5481 5480 5480 5480 5480 5479 5477 5475 5473 5469 5465 5461 5459 5457 5455 5452 5451 5449 5449 5449 5448 5445 5443 5441 5438 5437 5435 5432 5430 5428
5470 5471 5472 5473 5473 5472 5472 5471 5470 5469 5467 5467 5466 5465 5464 5462 5460 5458 5456 5452 5449 5447 5445 5441 5439 5436 5437 5438 5436 5434 5431 5429 5427 5425 5423 5420 5418 5415
5457 5458 5459 5460 5460 5460 5460 5460 5460 5458 5455 5454 5452 5451 5450 5449 5447 5445 5443 5441 5439 5437 5434 5430 5427 5424 5423 5424 5424 5422 5420 5418 5415 5413 5410 5408 5405 5403
5444 5445 5446 5447 5447 5447 5447 5448 5446 5444 5442 5440 5439 5438 5436 5435 5433 5431 5430 5428 5427 5426 5423 5420 5416 5413 5411 5411 5412 5411 5409 5406 5404 5401 5399 5396 5393 5391
5430 5431 5432 5433 5433 5433 5433 5434 5432 5430 5429 5427 5426 5425 5423 5421 5419 5417 5415 5414 5413 5412 5411 5408 5406 5403 5400 5399 5398 5397 5396 5395 5392 5389 5387 5384 5382 5380
5415 5416 5417 5418 5418 5419 5418 5418 5417 5417 5416 5415 5413 5411 5408 5407 5405 5404 5402 5400 5399 5399 5398 5396 5394 5392 5389 5388 5386 5385 5383 5381 5380 5377 5375 5373 5370 5368
5401 5402 5402 5402 5402 5403 5402 5402 5402 5402 5401 5400 5399 5397 5395 5394 5392 5391 5389 5388 5386 5386 5385 5383 5381 5380 5378 5376 5374 5374 5371 5369 5367 5365 5362 5361 5360 5357
5388 5388 5389 5389 5390 5389 5389 5389 5388 5388 5388 5387 5386 5385 5383 5381 5380 5378 5376 5375 5375 5374 5372 5370 5368 5366 5365 5365 5364 5362 5360 5357 5356 5353 5350 5349 5350 5348
5375 5375 5375 5376 5376 5376 5376 5376 5376 5375 5375 5374 5373 5372 5370 5369 5367 5365 5363 5362 5362 5361 5360 5358 5355 5352 5351 5353 5355 5351 5348 5346 5344 5341 5339 5337 5337 5338
5360 5361 5362 5362 5363 5363 5363 5363 5363 5362 5362 5361 5360 5359 5358 5356 5354 5353 5352 5350 5350 5349 5347 5346 5344 5342 5340 5340 5340 5340 5337 5335 5333 5331 5330 5328 5327 5327
5348 5348 5349 5350 5351 5351 5351 5351 5350 5349 5349 5348 5348 5347 5346 5344 5342 5341 5340 5339 5337 5336 5336 5336 5335 5332 5329 5326 5326 5328 5328 5325 5323 5321 5320 5318 5318 5317
5334 5335 5336 5338 5339 5339 5339 5338 5338 5337 5336 5336 5335 5334 5333 5332 5330 5329 5328 5327 5326 5325 5325 5324 5322 5319 5316 5316 5317 5318 5317 5317 5315 5313 5311 5309 5307 5308
5321 5323 5324 5325 5326 5327 5327 5327 5327 5326 5326 5325 5324 5323 5321 5320 5319 5318 5317 5316 5315 5313 5312 5311 5310 5309 5308 5307 5306 5307 5307 5306 5306 5305 5304 5302 5300 5300